Location: Battersea Observatory
(44.4318°N, 76.3841°W)
Time: 02:58:50
(UTC-05:00)

SR - Visible Passes

Search period start: 28 January 2022 00:00
Search period end: 07 February 2022 00:00
Orbit: 582 x 872 km, 66.7° (Epoch: 27 January)

Date Brightness Start Highest point End Pass type
(mag) Time Alt. Az. Time Alt. Az. Time Alt. Az.
28 Jan ? 17:57:47 10° NNW 18:02:20 48° NE 18:07:15 10° SE visible
28 Jan ? 19:40:18 10° WNW 19:44:08 24° WSW 19:48:13 10° SSW visible
29 Jan ? 18:49:50 10° NW 18:54:25 47° WSW 18:59:23 10° S visible
30 Jan ? 17:59:49 10° NNW 18:04:34 87° NE 18:09:46 10° SSE visible
30 Jan ? 19:43:55 10° W 19:46:02 13° WSW 19:48:14 10° SW visible
31 Jan ? 18:52:27 10° NW 18:56:27 26° WSW 19:00:42 10° SSW visible
01 Feb ? 18:02:03 10° NW 18:06:43 51° WSW 18:11:45 10° SSE visible
02 Feb ? 18:55:50 10° WNW 18:58:22 14° WSW 19:00:59 10° SW visible
03 Feb ? 18:04:37 10° NW 18:08:45 28° WSW 18:13:10 10° S visible
05 Feb ? 18:07:50 10° WNW 18:10:41 15° WSW 18:13:39 10° SW visible
